| time (UTC) | temp F | wind direction | speed MPH | gust MPH | rain 1hr in | rain 24hr in | rain mn in | humidity % | barometer mb |
| 20260505001420 | 64 | 180 | 0.0 | 0.0 | 0.00 | 0.00 | 0.00 | 99 | 1005.0 |
| 20260505000920 | 64 | 196 | 0.0 | 0.0 | 0.00 | 0.00 | 0.00 | 99 | 1005.0 |
| 20260505000420 | 65 | 211 | 0.0 | 2.0 | 0.00 | 0.00 | 0.00 | 99 | 1005.0 |
| 20260504235920 | 66 | 176 | 0.0 | 2.0 | 0.00 | 0.00 | 0.00 | 99 | 1004.2 |
| 20260504235420 | 68 | 222 | 0.0 | 1.0 | 0.00 | 0.00 | 0.00 | 99 | 1005.0 |
| 20260504234920 | 68 | 32 | 0.0 | 3.0 | 0.00 | 0.00 | 0.00 | 99 | 1005.0 |
| 20260504234420 | 69 | 315 | 0.0 | 3.0 | 0.00 | 0.00 | 0.00 | 99 | 1004.2 |
| 20260504233920 | 70 | 267 | 0.0 | 3.0 | 0.00 | 0.00 | 0.00 | 99 | 1005.0 |
| 20260504233420 | 70 | 261 | 0.0 | 7.0 | 0.00 | 0.00 | 0.00 | 99 | 1004.2 |
| 20260504232920 | 71 | 8 | 0.0 | 7.0 | 0.00 | 0.00 | 0.00 | 99 | 1005.0 |
| 20260504232420 | 72 | 357 | 0.0 | 2.0 | 0.00 | 0.00 | 0.00 | 99 | 1004.2 |
| 20260504231920 | 74 | 86 | 0.0 | 3.0 | 0.00 | 0.00 | 0.00 | 99 | 1005.0 |
| 20260504231420 | 75 | 356 | 0.0 | 3.0 | 0.00 | 0.00 | 0.00 | 99 | 1005.0 |
| 20260504230920 | 77 | 319 | 0.0 | 3.0 | 0.00 | 0.00 | 0.00 | 99 | 1004.2 |
| 20260504230420 | 78 | 281 | 0.0 | 3.0 | 0.00 | 0.00 | 0.00 | 99 | 1004.1 |
| 20260504225919 | 79 | 317 | 0.0 | 3.0 | 0.00 | 0.00 | 0.00 | 99 | 1004.0 |
| 20260504225420 | 80 | 320 | 0.0 | 2.0 | 0.00 | 0.00 | 0.00 | 99 | 1004.1 |
| 20260504224920 | 80 | 313 | 0.0 | 2.0 | 0.00 | 0.00 | 0.00 | 99 | 1004.0 |
| 20260504224420 | 81 | 317 | 0.0 | 0.0 | 0.00 | 0.00 | 0.00 | 99 | 1004.0 |
| 20260504223920 | 81 | 313 | 0.0 | 3.0 | 0.00 | 0.00 | 0.00 | 99 | 1004.0 |
| 20260504223420 | 83 | 313 | 0.0 | 3.0 | 0.00 | 0.00 | 0.00 | 99 | 1004.0 |
| 20260504222919 | 83 | 270 | 0.0 | 3.0 | 0.00 | 0.00 | 0.00 | 99 | 1004.0 |
| 20260504222419 | 83 | 3 | 0.0 | 0.0 | 0.00 | 0.00 | 0.00 | 99 | 1004.0 |
| 20260504221920 | 83 | 256 | 0.0 | 0.0 | 0.00 | 0.00 | 0.00 | 99 | 1004.0 |
| 20260504221420 | 83 | 263 | 0.0 | 0.0 | 0.00 | 0.00 | 0.00 | 99 | 1004.0 |
| 20260504220919 | 83 | 268 | 0.0 | 0.0 | 0.00 | 0.00 | 0.00 | 99 | 1004.0 |
| 20260504220419 | 83 | 185 | 0.0 | 0.0 | 0.00 | 0.00 | 0.00 | 99 | 1004.0 |
| 20260504215919 | 83 | 278 | 0.0 | 3.0 | 0.00 | 0.00 | 0.00 | 99 | 1004.0 |
| 20260504215419 | 84 | 236 | 0.0 | 3.0 | 0.00 | 0.00 | 0.00 | 99 | 1004.0 |
| 20260504214919 | 84 | 275 | 0.0 | 0.0 | 0.00 | 0.00 | 0.00 | 99 | 1004.1 |
| 20260504214419 | 84 | 310 | 0.0 | 0.0 | 0.00 | 0.00 | 0.00 | 99 | 1004.1 |
| 20260504213919 | 84 | 310 | 0.0 | 0.0 | 0.00 | 0.00 | 0.00 | 99 | 1004.2 |
| 20260504213420 | 84 | 275 | 0.0 | 0.0 | 0.00 | 0.00 | 0.00 | 99 | 1004.1 |
| 20260504212919 | 84 | 316 | 0.0 | 0.0 | 0.00 | 0.00 | 0.00 | 99 | 1004.2 |
| 20260504212419 | 83 | 277 | 0.0 | 0.0 | 0.00 | 0.00 | 0.00 | 99 | 1004.2 |
| 20260504211919 | 82 | 276 | 0.0 | 9.0 | 0.00 | 0.00 | 0.00 | 99 | 1005.0 |
| 20260504211419 | 82 | 273 | 1.0 | 9.0 | 0.00 | 0.00 | 0.00 | 99 | 1005.0 |
| 20260504210919 | 83 | 287 | 0.0 | 0.0 | 0.00 | 0.00 | 0.00 | 99 | 1005.0 |
| 20260504210419 | 85 | 313 | 0.0 | 0.0 | 0.00 | 0.00 | 0.00 | 99 | 1004.2 |
| 20260504205919 | 83 | 281 | 0.0 | 1.0 | 0.00 | 0.00 | 0.00 | 99 | 1005.0 |
| 20260504205419 | 82 | 264 | 0.0 | 1.0 | 0.00 | 0.00 | 0.00 | 99 | 1004.2 |
| 20260504204919 | 81 | 290 | 0.0 | 0.0 | 0.00 | 0.00 | 0.00 | 99 | 1005.0 |
| 20260504204419 | 81 | 346 | 0.0 | 0.0 | 0.00 | 0.00 | 0.00 | 99 | 1005.0 |
| 20260504203919 | 81 | 308 | 0.0 | 0.0 | 0.00 | 0.00 | 0.00 | 99 | 1005.0 |
| 20260504203420 | 83 | 51 | 0.0 | 5.0 | 0.00 | 0.00 | 0.00 | 99 | 1005.0 |
| 20260504202919 | 81 | 45 | 1.0 | 5.0 | 0.00 | 0.00 | 0.00 | 99 | 1005.0 |
| 20260504202419 | 79 | 314 | 0.0 | 4.0 | 0.00 | 0.00 | 0.00 | 99 | 1005.0 |
| 20260504201919 | 79 | 345 | 0.0 | 0.0 | 0.00 | 0.00 | 0.00 | 99 | 1005.0 |
| 20260504201419 | 80 | 1 | 0.0 | 0.0 | 0.00 | 0.00 | 0.00 | 99 | 1005.0 |
| 20260504200919 | 81 | 358 | 0.0 | 0.0 | 0.00 | 0.00 | 0.00 | 99 | 1005.0 |
| 20260504200419 | 82 | 279 | 0.0 | 2.0 | 0.00 | 0.00 | 0.00 | 99 | 1005.0 |
| 20260504195919 | 86 | 283 | 0.0 | 2.0 | 0.00 | 0.00 | 0.00 | 99 | 1005.0 |
| 20260504195419 | 89 | 354 | 0.0 | 1.0 | 0.00 | 0.00 | 0.00 | 99 | 1005.0 |
| 20260504194919 | 89 | 7 | 0.0 | 0.0 | 0.00 | 0.00 | 0.00 | 99 | 1005.0 |
| 20260504194419 | 88 | 299 | 0.0 | 0.0 | 0.00 | 0.00 | 0.00 | 99 | 1005.0 |
| 20260504193919 | 87 | 359 | 0.0 | 4.0 | 0.00 | 0.00 | 0.00 | 99 | 1005.0 |
| 20260504193419 | 86 | 316 | 0.0 | 4.0 | 0.00 | 0.00 | 0.00 | 99 | 1005.0 |
| 20260504192919 | 84 | 302 | 0.0 | 0.0 | 0.00 | 0.00 | 0.00 | 99 | 1005.0 |
| 20260504192419 | 82 | 315 | 0.0 | 3.0 | 0.00 | 0.00 | 0.00 | 99 | 1005.0 |
| 20260504191919 | 79 | 3 | 0.0 | 3.0 | 0.00 | 0.00 | 0.00 | 99 | 1005.0 |
| 20260504191419 | 78 | 274 | 0.0 | 6.0 | 0.00 | 0.00 | 0.00 | 99 | 1005.0 |
| 20260504190919 | 79 | 4 | 0.0 | 6.0 | 0.00 | 0.00 | 0.00 | 99 | 1005.0 |
| 20260504190419 | 82 | 356 | 0.0 | 5.0 | 0.00 | 0.00 | 0.00 | 99 | 1005.0 |
| 20260504185919 | 84 | 36 | 0.0 | 2.0 | 0.00 | 0.00 | 0.00 | 99 | 1005.0 |
| 20260504185419 | 83 | 35 | 0.0 | 4.0 | 0.00 | 0.00 | 0.00 | 99 | 1005.0 |
| 20260504184919 | 83 | 8 | 0.0 | 4.0 | 0.00 | 0.00 | 0.00 | 99 | 1005.0 |
| 20260504184419 | 85 | 46 | 0.0 | 2.0 | 0.00 | 0.00 | 0.00 | 99 | 1005.0 |
| 20260504183919 | 86 | 331 | 0.0 | 7.0 | 0.00 | 0.00 | 0.00 | 99 | 1005.0 |
| 20260504183419 | 87 | 13 | 0.0 | 7.0 | 0.00 | 0.00 | 0.00 | 99 | 1005.0 |
| 20260504182919 | 87 | 40 | 0.0 | 0.0 | 0.00 | 0.00 | 0.00 | 99 | 1005.0 |
| 20260504182419 | 85 | 306 | 0.0 | 0.0 | 0.00 | 0.00 | 0.00 | 99 | 1005.0 |
| 20260504181919 | 84 | 353 | 0.0 | 4.0 | 0.00 | 0.00 | 0.00 | 99 | 1005.0 |
| 20260504181419 | 84 | 273 | 0.0 | 5.0 | 0.00 | 0.00 | 0.00 | 99 | 1005.0 |
| 20260504180919 | 84 | 307 | 0.0 | 8.0 | 0.00 | 0.00 | 0.00 | 99 | 1005.0 |
| 20260504180419 | 85 | 1 | 0.0 | 8.0 | 0.00 | 0.00 | 0.00 | 99 | 1005.0 |
| 20260504175419 | 83 | 322 | 0.0 | 5.0 | 0.00 | 0.00 | 0.00 | 99 | 1005.0 |
| 20260504174919 | 81 | 38 | 0.0 | 7.0 | 0.00 | 0.00 | 0.00 | 99 | 1005.0 |
| 20260504174419 | 80 | 321 | 1.0 | 7.0 | 0.00 | 0.00 | 0.00 | 99 | 1005.0 |
| 20260504173919 | 80 | 42 | 0.0 | 7.0 | 0.00 | 0.00 | 0.00 | 99 | 1005.0 |
| 20260504173419 | 81 | 278 | 0.0 | 3.0 | 0.00 | 0.00 | 0.00 | 99 | 1005.0 |
| 20260504172919 | 81 | 310 | 0.0 | 0.0 | 0.00 | 0.00 | 0.00 | 99 | 1005.0 |
| 20260504172419 | 81 | 311 | 0.0 | 1.0 | 0.00 | 0.00 | 0.00 | 99 | 1005.0 |
| 20260504171919 | 81 | 3 | 0.0 | 2.0 | 0.00 | 0.00 | 0.00 | 99 | 1005.1 |
| 20260504171419 | 81 | 353 | 0.0 | 6.0 | 0.00 | 0.00 | 0.00 | 99 | 1006.0 |
| 20260504170919 | 79 | 316 | 0.0 | 6.0 | 0.00 | 0.00 | 0.00 | 99 | 1005.2 |
| 20260504170419 | 78 | 274 | 0.0 | 0.0 | 0.00 | 0.00 | 0.00 | 99 | 1005.2 |
| 20260504160419 | 72 | 359 | 0.0 | 5.0 | 0.00 | 0.00 | 0.00 | 99 | 1006.0 |
| 20260504150919 | 67 | 354 | 0.0 | 5.0 | 0.00 | 0.00 | 0.00 | 99 | 1006.0 |
| 20260504150419 | 67 | 8 | 1.0 | 5.0 | 0.00 | 0.00 | 0.00 | 99 | 1006.0 |
| 20260504140919 | 71 | 6 | 1.0 | 10.0 | 0.00 | 0.00 | 0.00 | 99 | 1006.2 |
| 20260504140419 | 71 | 317 | 0.0 | 10.0 | 0.00 | 0.00 | 0.00 | 99 | 1007.0 |
| 20260504130419 | 63 | 220 | 0.0 | 0.0 | 0.00 | 0.00 | 0.00 | 99 | 1006.2 |
| 20260504110419 | 37 | 243 | 0.0 | 0.0 | 0.00 | 0.00 | 0.00 | 99 | 1007.0 |
| 20260504100419 | 32 | 155 | 0.0 | 0.0 | 0.00 | 0.00 | 0.00 | 99 | 1007.0 |
| 20260504081918 | 36 | 167 | 0.0 | 0.0 | 0.00 | 0.00 | 0.00 | 99 | 1007.0 |
| 20260504081418 | 37 | 274 | 0.0 | 0.0 | 0.00 | 0.00 | 0.00 | 99 | 1007.0 |
| 20260504080918 | 37 | 164 | 0.0 | 0.0 | 0.00 | 0.00 | 0.00 | 99 | 1007.0 |
| 20260504080418 | 37 | 179 | 0.0 | 0.0 | 0.00 | 0.00 | 0.00 | 99 | 1007.0 |
| 20260504050418 | 41 | 178 | 0.0 | 0.0 | 0.00 | 0.00 | 0.00 | 99 | 1008.0 |
| 20260504045918 | 41 | 90 | 0.0 | 0.0 | 0.00 | 0.00 | 0.00 | 99 | 1008.0 |
| 20260504045418 | 41 | 90 | 0.0 | 0.0 | 0.00 | 0.00 | 0.00 | 99 | 1007.2 |
| 20260504044918 | 41 | 90 | 0.0 | 0.0 | 0.00 | 0.00 | 0.00 | 99 | 1007.2 |
| 20260504044418 | 41 | 144 | 0.0 | 0.0 | 0.00 | 0.00 | 0.00 | 99 | 1008.0 |
| 20260504043918 | 41 | 171 | 0.0 | 0.0 | 0.00 | 0.00 | 0.00 | 99 | 1007.2 |
| 20260504043418 | 41 | 203 | 0.0 | 0.0 | 0.00 | 0.00 | 0.00 | 99 | 1008.0 |
| 20260504042918 | 41 | 293 | 0.0 | 0.0 | 0.00 | 0.00 | 0.00 | 99 | 1007.2 |
| 20260504042418 | 41 | 169 | 0.0 | 0.0 | 0.00 | 0.00 | 0.00 | 99 | 1008.0 |
| 20260504041918 | 41 | 78 | 0.0 | 0.0 | 0.00 | 0.00 | 0.00 | 99 | 1007.2 |
| 20260504041418 | 40 | 45 | 0.0 | 0.0 | 0.00 | 0.00 | 0.00 | 99 | 1008.0 |
| 20260504040918 | 40 | 45 | 0.0 | 0.0 | 0.00 | 0.00 | 0.00 | 99 | 1007.2 |
| 20260504040418 | 40 | 150 | 0.0 | 0.0 | 0.00 | 0.00 | 0.00 | 99 | 1008.0 |
| 20260504035918 | 40 | 180 | 0.0 | 0.0 | 0.00 | 0.00 | 0.00 | 99 | 1007.2 |
| 20260504035418 | 40 | 180 | 0.0 | 0.0 | 0.00 | 0.00 | 0.00 | 99 | 1008.0 |
| 20260504034918 | 39 | 202 | 0.0 | 0.0 | 0.00 | 0.00 | 0.00 | 99 | 1007.2 |
| 20260504034418 | 39 | 227 | 0.0 | 0.0 | 0.00 | 0.00 | 0.00 | 99 | 1008.0 |
| 20260504033918 | 39 | 247 | 0.0 | 0.0 | 0.00 | 0.00 | 0.00 | 99 | 1007.2 |
| 20260504033418 | 39 | 247 | 0.0 | 0.0 | 0.00 | 0.00 | 0.00 | 99 | 1008.0 |
| 20260504032918 | 38 | 102 | 0.0 | 0.0 | 0.00 | 0.00 | 0.00 | 99 | 1007.2 |
| 20260504032418 | 38 | 227 | 0.0 | 0.0 | 0.00 | 0.00 | 0.00 | 99 | 1008.0 |
| 20260504031918 | 38 | 262 | 0.0 | 0.0 | 0.00 | 0.00 | 0.00 | 99 | 1008.0 |
| 20260504031418 | 37 | 37 | 0.0 | 0.0 | 0.00 | 0.00 | 0.00 | 99 | 1007.2 |
| 20260504030918 | 37 | 77 | 0.0 | 0.0 | 0.00 | 0.00 | 0.00 | 99 | 1007.2 |
| 20260504030418 | 37 | 117 | 0.0 | 0.0 | 0.00 | 0.00 | 0.00 | 99 | 1008.0 |
| 20260504025918 | 37 | 135 | 0.0 | 0.0 | 0.00 | 0.00 | 0.00 | 99 | 1007.2 |
| 20260504025418 | 37 | 117 | 0.0 | 0.0 | 0.00 | 0.00 | 0.00 | 99 | 1007.2 |
| 20260504024918 | 37 | 115 | 0.0 | 0.0 | 0.00 | 0.00 | 0.00 | 99 | 1007.1 |
| 20260504024418 | 37 | 124 | 0.0 | 0.0 | 0.00 | 0.00 | 0.00 | 99 | 1007.1 |
| 20260504023918 | 37 | 180 | 0.0 | 0.0 | 0.00 | 0.00 | 0.00 | 99 | 1007.1 |
| 20260504023418 | 37 | 180 | 0.0 | 0.0 | 0.00 | 0.00 | 0.00 | 99 | 1007.0 |
| 20260504022918 | 38 | 197 | 0.0 | 0.0 | 0.00 | 0.00 | 0.00 | 99 | 1007.1 |
| 20260504022418 | 38 | 202 | 0.0 | 0.0 | 0.00 | 0.00 | 0.00 | 99 | 1007.2 |
| 20260504021918 | 39 | 189 | 0.0 | 0.0 | 0.00 | 0.00 | 0.00 | 99 | 1007.2 |
| 20260504021418 | 39 | 180 | 0.0 | 0.0 | 0.00 | 0.00 | 0.00 | 99 | 1007.2 |
| 20260504020918 | 40 | 189 | 0.0 | 0.0 | 0.00 | 0.00 | 0.00 | 99 | 1007.2 |
| 20260504020418 | 40 | 208 | 0.0 | 0.0 | 0.00 | 0.00 | 0.00 | 99 | 1007.2 |
| 20260504015918 | 41 | 47 | 0.0 | 0.0 | 0.00 | 0.00 | 0.00 | 99 | 1007.2 |
| 20260504015418 | 41 | 139 | 0.0 | 0.0 | 0.00 | 0.00 | 0.00 | 99 | 1008.0 |
| 20260504014918 | 41 | 147 | 0.0 | 0.0 | 0.00 | 0.00 | 0.00 | 99 | 1007.2 |
| 20260504014418 | 42 | 214 | 0.0 | 0.0 | 0.00 | 0.00 | 0.00 | 99 | 1008.0 |
| 20260504013918 | 42 | 225 | 0.0 | 0.0 | 0.00 | 0.00 | 0.00 | 99 | 1007.2 |
| 20260504013418 | 42 | 225 | 0.0 | 0.0 | 0.00 | 0.00 | 0.00 | 99 | 1007.1 |
| 20260504012918 | 42 | 225 | 0.0 | 0.0 | 0.00 | 0.00 | 0.00 | 99 | 1007.0 |
| 20260504012418 | 43 | 225 | 0.0 | 0.0 | 0.00 | 0.00 | 0.00 | 99 | 1007.0 |
| 20260504011918 | 43 | 225 | 0.0 | 0.0 | 0.00 | 0.00 | 0.00 | 99 | 1007.0 |
| 20260504011418 | 44 | 232 | 0.0 | 0.0 | 0.00 | 0.00 | 0.00 | 99 | 1007.0 |
| 20260504010918 | 44 | 195 | 0.0 | 0.0 | 0.00 | 0.00 | 0.00 | 99 | 1007.0 |
| 20260504010418 | 45 | 180 | 0.0 | 0.0 | 0.00 | 0.00 | 0.00 | 99 | 1007.0 |
| 20260504005918 | 46 | 180 | 0.0 | 0.0 | 0.00 | 0.00 | 0.00 | 99 | 1007.0 |
| 20260504005418 | 46 | 164 | 0.0 | 0.0 | 0.00 | 0.00 | 0.00 | 99 | 1007.0 |
| 20260504004918 | 46 | 177 | 0.0 | 0.0 | 0.00 | 0.00 | 0.00 | 99 | 1007.0 |
| 20260504004418 | 47 | 159 | 0.0 | 0.0 | 0.00 | 0.00 | 0.00 | 99 | 1007.0 |
| 20260504003918 | 48 | 159 | 0.0 | 0.0 | 0.00 | 0.00 | 0.00 | 99 | 1007.0 |
| 20260504003418 | 49 | 137 | 0.0 | 0.0 | 0.00 | 0.00 | 0.00 | 99 | 1007.0 |
| 20260504002918 | 49 | 355 | 0.0 | 0.0 | 0.00 | 0.00 | 0.00 | 99 | 1007.0 |
| 20260504002418 | 49 | 80 | 0.0 | 0.0 | 0.00 | 0.00 | 0.00 | 99 | 1007.0 |
| 20260504001918 | 50 | 102 | 0.0 | 0.0 | 0.00 | 0.00 | 0.00 | 99 | 1006.2 |